www.pogodaiklimat.ru

Погода и климат >> Архив погоды >> Россия >> Якутия >> Делянкир


ПОГОДА в Делянкире

  • Прогноз погоды в Делянкире
  • Монитор погоды в Делянкире

АРХИВ ПОГОДЫ в Делянкире

Время (UTC), дата Ветер
(напр.,м/с)
 
Видим.   Явления Облачность Т
(С)
Тd
(С)
f
(%)
Тe
(С)
Тes
(С)
Комфортность P
(гПа)
Po
(гПа)
Тmin
(С)
Tmax
(С)
R
(мм)
R24
(мм)
S
(см)
00 14.01 штиль 0 50 км 3/0
[Ci fib]
-52.3 -55.8 66 -52 -52 опасность
обморожения
1045.0 924.4 -52.3
03 14.01 штиль 0 50 км 3/0
[As trans]
-50.3 -54.3 62 -50 -50 опасность
обморожения
1043.5 924.1
06 14.01 штиль 0 50 км 3/0
[As trans]
-50.4 -54.3 63 -50 -50 опасность
обморожения
1043.4 924.0
09 14.01 штиль 0 50 км 3/0
[As trans]
-50.4 -54.3 63 -50 -50 опасность
обморожения
1043.4 924.0
12 14.01 штиль 0 50 км ясно -55.1 -57.6 73 -55 -55 опасность
обморожения
1046.3 924.1
15 14.01 штиль 0 50 км ясно -55.3 -60.0 56 -55 -55 опасность
обморожения
1046.4 924.1
18 14.01 штиль 0 50 км ясно -55.5 -60.0 57 -56 -56 опасность
обморожения
1046.4 924.0
21 14.01 штиль 0 50 км ясно -55.7 -60.0 58 -56 -56 опасность
обморожения
1046.5 924.0 -55.7 38
00 15.01 штиль 0 50 км 3/0
[Ci fib]
-55.9 -60.0 60 -56 -56 опасность
обморожения
1047.1 924.4 -55.9
06 15.01 штиль 0 50 км 3/0
[Ci fib]
-52.0 -55.8 63 -52 -52 опасность
обморожения
1044.4 924.1
09 15.01 штиль 0 50 км ясно -54.2 -57.6 66 -54 -54 опасность
обморожения
1045.8 924.2 -52.0
12 15.01 штиль 0 50 км ясно -55.0 -57.6 73 -55 -55 опасность
обморожения
1046.1 924.0
15 15.01 штиль 0 50 км ясно -55.2 -60.0 55 -55 -55 опасность
обморожения
1046.3 924.1
18 15.01 штиль 0 50 км ясно -55.4 -60.0 56 -55 -55 опасность
обморожения
1047.5 925.1
21 15.01 штиль 0 50 км 3/0
[As trans]
-55.1 -57.6 73 -55 -55 опасность
обморожения
1047.6 925.3 -55.7 38
00 16.01 штиль 0 50 км 3/0
[As trans]
-53.4 -57.6 60 -53 -53 опасность
обморожения
1048.0 926.5
03 16.01 штиль 0 50 км 3/0
[As trans]
-51.1 -54.3 68 -51 -51 опасность
обморожения
1047.5 927.2
06 16.01 штиль 0 50 км 3/0
[As trans]
-51.4 -55.8 59 -51 -51 опасность
обморожения
1078.1 927.6
09 16.01 штиль 0 50 км 3/0
[As trans]
-53.4 -57.6 60 -53 -53 опасность
обморожения
1050.0 928.3 -51.1
12 16.01 штиль 0 50 км ясно -54.4 -57.6 67 -54 -54 опасность
обморожения
1050.5 928.3
15 16.01 штиль 0 50 км ясно -55.2 -60.0 55 -55 -55 опасность
обморожения
1051.6 928.7
18 16.01 штиль 0 50 км 3/0
[As trans]
-55.3 -60.0 56 -55 -55 опасность
обморожения
1051.1 928.3
21 16.01 штиль 0 50 км 3/0
[As trans]
-56.0 -60.0 60 -56 -56 опасность
обморожения
1050.4 927.3 -56.0 38
00 17.01 штиль 0 50 км ясно -56.6 -60.0 65 -57 -57 опасность
обморожения
1050.6 927.2 -56.6
03 17.01 штиль 0 50 км 3/0
[Ci fib]
-52.4 -55.8 66 -52 -52 опасность
обморожения
1046.8 926.0
06 17.01 штиль 0 50 км ясно -52.2 -55.8 65 -52 -52 опасность
обморожения
1045.1 924.5
09 17.01 штиль 0 50 км ясно -54.6 -57.6 69 -55 -55 опасность
обморожения
1045.9 924.1 -52.2
12 17.01 штиль 0 50 км ясно -56.6 -60.0 65 -57 -57 опасность
обморожения
1046.3 923.4
15 17.01 штиль 0 50 км ясно -57.1 -60.0 69 -57 -57 опасность
обморожения
1045.7 922.5
18 17.01 штиль 0 50 км ясно -57.2 -60.0 70 -57 -57 опасность
обморожения
1044.6 921.5
21 17.01 штиль 0 50 км ясно -57.5 -60.0 73 -58 -58 опасность
обморожения
1044.3 921.1 -57.5 38
00 18.01 штиль 0 50 км ясно -56.9 -60.0 68 -57 -57 опасность
обморожения
1044.0 921.1
03 18.01 штиль 0 50 км ясно -52.5 -55.8 67 -53 -52 опасность
обморожения
1040.2 920.0
06 18.01 штиль 0 50 км ясно -52.4 -55.8 66 -52 -52 опасность
обморожения
1039.5 919.5
09 18.01 штиль 0 50 км ясно -54.4 -57.6 67 -54 -54 опасность
обморожения
1040.5 919.4 -52.4
12 18.01 штиль 0 50 км ясно -54.7 -57.6 70 -55 -55 опасность
обморожения
1042.3 920.7
15 18.01 штиль 0 50 км ясно -55.1 -57.6 73 -55 -55 опасность
обморожения
1041.9 920.2
18 18.01 штиль 0 50 км ясно -55.2 -60.0 55 -55 -55 опасность
обморожения
1042.1 920.4
21 18.01 штиль 0 50 км 3/0
[Ci fib]
-55.2 -60.0 55 -55 -55 опасность
обморожения
1042.4 920.6 -56.4 38
00 19.01 штиль 0 50 км 6/0
[As trans Ci fib]
-54.6 -57.6 69 -55 -55 опасность
обморожения
1041.0 919.7
03 19.01 штиль 0 50 км 8/0
[As trans Ci fib]
-52.1 -55.8 64 -52 -52 опасность
обморожения
1040.6 920.5
06 19.01 штиль 0 50 км 4/0
[As trans Ci fib]
-50.9 -54.3 67 -51 -51 опасность
обморожения
1040.1 920.7
09 19.01 штиль 0 50 км 3/0
[As trans]
-52.4 -55.8 66 -52 -52 опасность
обморожения
1041.4 921.2 -50.9
12 19.01 штиль 0 50 км 8/0
[Ac As]
-50.5 -54.3 64 -51 -51 опасность
обморожения
1040.8 921.5
15 19.01 штиль 0 20 км слаб. снег 10/0
[As op]
-48.8 -53.0 61 -49 -49 опасность
обморожения
1039.4 921.3
18 19.01 штиль 0 50 км {снег} 10/0
[As op]
-48.1 -51.8 65 -48 -48 опасность
обморожения
1038.3 920.5
21 19.01 штиль 0 50 км 10/0
[Ac As]
-46.5 -50.8 61 -47 -47 опасность
обморожения
1037.0 920.2 -53.2 0.0 38
00 20.01 С 1 50 км 10/0
[Ac As]
-46.6 -50.8 62 -53 -53 опасность
обморожения
1036.5 919.7
03 20.01 С 1 50 км 10/0
[Ac As]
-44.5 -48.3 66 -50 -50 опасность
обморожения
1034.6 919.0
06 20.01 С 1 50 км 10/0
[As op]
-44.0 -48.3 62 -50 -50 опасность
обморожения
1033.4 918.2
09 20.01 С 1 20 км слаб. снег 10/0
[As op]
-42.6 -46.9 62 -48 -48 опасность
обморожения
1032.0 917.6 -42.6 0.0
12 20.01 С 1 20 км слаб. снег 10/0
[As op]
-41.4 -45.7 63 -47 -47 опасность
обморожения
1030.9 917.2
15 20.01 С 1 20 км слаб. снег 10/0
[As op]
-41.2 -45.1 66 -47 -47 опасность
обморожения
1030.1 916.5
18 20.01 штиль 0 50 км {снег} 10/0
[As op]
-39.5 -43.6 65 -40 -40 опасность
обморожения
1039.3 926.5
21 20.01 штиль 0 50 км 6/0
[Ac As]
-40.2 -44.1 66 -40 -40 опасность
обморожения
1028.5 915.6 -42.6 0.6 39

 

Местоположение метеостанции Делянкир (Якутия, Россия): широта 63.83 долгота 145.60 высота над уровнем моря 801 м.

В архиве по умолчанию представлена погода в Делянкире за последнюю неделю. Архивные данные за месяц целиком и за предыдущие месяцы, начиная с января 2011 года, Вы можете получить, выбрав интересующий диапазон дат из раскрывающегося списка и нажав кнопку "Ввод!".


*Определитесь, кто Вы:
робот инопланетянин человек

Внимание! Время в таблицах - всемирное. Для получения местного времени необходимо прибавить поправку, которая равна 10 ч.

Смотрите также архив погоды в соседних городах и на ближайших метеорологических станциях:

Погода в Оймяконе (Якутия, Россия) (140 км)
Погода в Усть-Нере (Якутия, Россия) (144 км)
Погода в Сусумане (Магаданская область, Россия) (171 км)
Погода в Юртах (Якутия, Россия) (187 км)
Погода в Агаякане (Якутия, Россия) (201 км)
Погода в Колымской (Магаданская область, Россия) (242 км)
Погода в Ягодной (Магаданская область, Россия) (249 км)
Погода в Совхозе Эльген (Магаданская область, Россия) (275 км)
Погода на Озере Джека Лондона (Магаданская область, Россия) (277 км)
Погода в Восточной (Якутия, Россия) (305 км)

Пояснения к столбцам:

Ветер - указаны скорость ветра в м/с - средняя за 10 мин, порывы в срок и между сроками (в фигурных скобках) и направление, откуда дует ветер: С - северный, СВ - северо-восточный, В - восточный, ЮВ - юго-восточный, Ю - южный, ЮЗ - юго-западный, З - западный, СЗ - северо-западный.
Видимость - горизонтальная дальность видимости в метрах или километрах. При видимости от 1 до 10 км при отсутствии осадков обычно наблюдается дымка, при ухудшении видимости до 1 км и менее - туман. В сухую погоду видимость может ухудшаться дымом, пылью или мглою.
Явления - указаны атмосферные явления, наблюдавшиеся в срок или в последний час перед сроком; фигурными скобками обозначены явления, наблюдавшиеся между сроками (за 1-3 часа до срока); квадратными скобками обозначены град или гололедные отложения с указанием их диаметра в мм.
Облачность - указаны через наклонную черту общая и нижняя облачность в баллах и высота нижней границы облаков в метрах; квадратными скобками обозначены формы облаков: Ci - перистые, Cs - перисто-слоистые, Cc - перисто-кучевые, Ac - высококучевые, As - высокослоистые, Sc - слоисто-кучевые, Ns - слоисто-дождевые, Cu - кучевые, Cb - кучево-дождевые. Подробнее классификацию облаков см. в Атласе облаков (PDF).
T - Температура воздуха - температура, измеренная на высоте 2 м над землей.
Td - Температура точки росы - температура, при понижении до которой содержащийся в воздухе водяной пар достигнет насыщения.
f - Относительная влажность воздуха - влажноcть воздуха, измеренная на высоте 2 м над землей.
Te - Эффективная температура - температура, которую ощущает одетый по сезону человек в тени. Характеристика душности погоды. При расчете учитывается влияние влажности воздуха и скорости ветра на теплоощущения человека.
Tes - Эффективная температура на солнце - температура, которую ощущает человек, с поправкой на солнечный нагрев. Характеристика знойности погоды. Зависит от высоты солнца над горизонтом, облачности и скорости ветра. Ночью, в пасмурную погоду, а также при ветре 12 м/с и более поправка равна нулю.
P - Атмосферное давление - приведенное к уровню моря атмосферное давление.
Po - Атмосферное давление - измеренное на уровне метеостанции атмосферное давление.
Tmin - Минимальная температура - минимум температуры воздуха на высоте 2 м над землей.
Tmax - Максимальная температура - максимум температуры воздуха на высоте 2 м над землей.
R - Количество осадков - Количество выпавших осадков за период времени, мм. При наведении курсора мыши на число - период времени, за который выпало указанное количество осадков.
R24 - Количество осадков - Количество выпавших осадков за 24 часа, мм.
S - Снежный покров - Высота снежного покрова, см. При наведении курсора мыши на число - состояние снежного покрова и степень покрытия местности в баллах.